Location: Sternwarte ZA, Rosenfeld-Brittheim
(48.2889°N, 8.6789°E)
Time: 19:59:43
(UTC+02:00)

ISS - Pass Details

Date: 17 July 2019
Orbit: 409 x 418 km, 51.6° (Epoch: 20 July)

Event Time Altitude Azimuth Distance (km) Brightness Sun altitude
Rises 22:14:58 0° 210° (SSW) 2,343 -0.1 -7.9°
Reaches altitude 10° 22:17:19 10° 195° (SSW) 1,482 -1.3 -8.1°
Maximum altitude 22:20:00 23° 141° (SE) 933 -2.6 -8.5°
Drops below altitude 10° 22:22:42 10° 87° (E) 1,486 -1.4 -8.8°
Sets 22:25:03 0° 72° (ENE) 2,350 -0.2 -9.0°
